Location: Newark
(47.5833°N, 8.1500°E)
Time: 18:23:17
(UTC+00:00)

Transit 2A - Pass Details

Date: 04 November 2020
Orbit: 595 x 964 km, 66.7° (Epoch: 01 December)

Event Time Altitude Azimuth Distance (km) Brightness Sun altitude
Rises 06:19:33 0° 327° (NNW) 3,488 8.9 -0.3°
Reaches altitude 10° 06:22:22 10° 335° (NNW) 2,490 8.2 0.1°
Maximum altitude 06:27:39 37° 43° (NE) 1,217 7.3 0.9°
Drops below altitude 10° 06:32:26 10° 111° (ESE) 2,244 10.9 1.6°
Sets 06:34:50 0° 119° (ESE) 3,103 12.5 2.0°
